{"data":{"norad_id":68113,"intl_designator":"2026-044N","name":"STARLINK-36937","alt_names":[],"object_type":"PAYLOAD","status":"ACTIVE","operator":null,"country":"US","launch_date":"2026-03-08","launch_site_code":"AFWTR","launch_vehicle":null,"mission":null,"orbit_class":"UNKNOWN","rcs_meters":null,"size_class":null,"mass_kg":null,"dimensions":null,"purposes":["comms"],"wikipedia_slug":null,"has_3d_model":false,"image_url":null,"decayed_at":null,"tle_current":{"epoch":"2026-09-19T08:42:02.816640Z","epoch_age_seconds":154424,"freshness":"FRESH","line1":"1 68113U 26044N   26262.36253260  .00015802  00000+0  49058-3 0  9994","line2":"2 68113  97.2842 221.3342 0001083  98.7229 261.4137 15.33457363 31265","mean_motion":15.33457363,"eccentricity":0.0001083,"inclination_deg":97.2842,"raan_deg":221.3342,"arg_perigee_deg":98.7229,"mean_anomaly_deg":261.4137,"bstar":0.00049058,"rev_number":3126,"period_min":93.905447568678,"perigee_km":464.76522455611,"apogee_km":466.24755771463,"semimajor_km":6843.6433911354,"source":"CELESTRAK","updated_at":"2026-09-20T09:00:43.787652Z"}}}